Weather History for Pampa / Mesa Vista, TX

Change the Weather History Date:

Wednesday, March 20, 2013

  Actual Average (KBGD) Record (KBGD)
Temperature  
Mean Temperature 43 °F 51 °F  
Max Temperature 62 °F 64 °F 84 °F (2011)
Min Temperature 24 °F 37 °F 14 °F (1965)
Degree Days  
Heating Degree Days 22 14  
Month to date heating degree days 345  
Since 1 July heating degree days 3338  
Cooling Degree Days 0 0  
Month to date cooling degree days 0  
Year to date cooling degree days 0  
Moisture  
Dew Point 20 °F    
Average Humidity 42    
Maximum Humidity 80    
Minimum Humidity 17    
Precipitation  
Precipitation 0.00 in 0.03 in 2.04 in (1985)
Month to date precipitation 0.85  
Year to date precipitation 2.06  
Snow  
Snow 0.00 in - 1.50 in (2010)
Month to date snowfall  
Since 1 July snowfall  
Snow Depth -    
Sea Level Pressure  
Sea Level Pressure 30.17 in    
Wind  
Wind Speed 7 mph (SSW)    
Max Wind Speed 22 mph    
Max Gust Speed 31 mph    
Visibility 10 miles    
Events      
T = Trace of Precipitation, MM = Missing Value Source: NWS Daily Summary

Daily Weather History Graph

Daily Weather History Graph

Search for Another Location

Airport:

Trip Planner

Search our weather history database for the weather conditions in past years. The results will help you decide how hot, cold, wet, or windy it might be!

Date:

Astronomy

Mar. 20, 2013 Rise Set
Actual Time 7:47 AM CDT 7:56 PM CDT
Civil Twilight 7:21 AM CDT 8:21 PM CDT
Nautical Twilight 6:51 AM CDT 8:51 PM CDT
Astronomical Twilight 6:21 AM CDT 9:21 PM CDT
Moon 1:43 PM CDT (3/20) 3:18 AM CDT (3/20)
Length of Visible Light 12h 59m
Length of Day
12h 08m
First Quarter, 59% of the Moon is Illuminated
Mar 20
First Quarter
Mar 27
Full
Apr 2
Last Quarter
Apr 10
New
Apr 18
First Quarter

Hourly Weather History & Observations

Time (CDT) Temp. Windchill Dew Point Humidity Pressure Visibility Wind Dir Wind Speed Gust Speed Precip Events Conditions
12:15 AM 42.8 °F 40.1 °F 15.8 °F 34% 30.25 in 10.0 mi ENE 4.6 mph - N/A   Clear
12:35 AM 42.8 °F 40.1 °F 14.0 °F 31% 30.26 in 10.0 mi ENE 4.6 mph - N/A   Clear
12:55 AM 41.0 °F - 14.0 °F 33% 30.26 in 10.0 mi Calm Calm - N/A   Clear
1:15 AM 39.2 °F - 15.8 °F 39% 30.26 in 10.0 mi Calm Calm - N/A   Clear
1:35 AM 35.6 °F - 17.6 °F 48% 30.26 in 10.0 mi Calm Calm - N/A   Clear
1:55 AM 37.4 °F 34.9 °F 14.0 °F 38% 30.27 in 10.0 mi WNW 3.5 mph - N/A   Clear
2:15 AM 33.8 °F 30.8 °F 17.6 °F 52% 30.27 in 10.0 mi WNW 3.5 mph - N/A   Clear
2:35 AM 32.0 °F 27.5 °F 17.6 °F 55% 30.28 in 10.0 mi NW 4.6 mph - N/A   Clear
2:55 AM 32.0 °F 27.5 °F 19.4 °F 60% 30.29 in 10.0 mi WNW 4.6 mph - N/A   Clear
3:15 AM 32.0 °F 27.5 °F 19.4 °F 60% 30.29 in 10.0 mi WNW 4.6 mph - N/A   Clear
3:35 AM 30.2 °F 25.4 °F 19.4 °F 64% 30.29 in 10.0 mi West 4.6 mph - N/A   Clear
3:55 AM 28.4 °F 24.6 °F 17.6 °F 64% 30.29 in 10.0 mi West 3.5 mph - N/A   Clear
4:35 AM 30.2 °F 26.7 °F 19.4 °F 64% 30.28 in 10.0 mi West 3.5 mph - N/A   Clear
4:55 AM 28.4 °F 24.6 °F 19.4 °F 69% 30.28 in 10.0 mi West 3.5 mph - N/A   Clear
5:15 AM 28.4 °F 23.3 °F 19.4 °F 69% 30.29 in 10.0 mi WNW 4.6 mph - N/A   Clear
5:55 AM 28.4 °F 24.6 °F 19.4 °F 69% 30.31 in 10.0 mi West 3.5 mph - N/A   Clear
6:15 AM 28.4 °F 24.6 °F 19.4 °F 69% 30.32 in 10.0 mi WSW 3.5 mph - N/A   Clear
6:35 AM 24.8 °F 20.5 °F 19.4 °F 80% 30.33 in 10.0 mi West 3.5 mph - N/A   Clear
6:55 AM 26.6 °F 22.6 °F 19.4 °F 74% 30.33 in 10.0 mi West 3.5 mph - N/A   Clear
7:15 AM 24.8 °F 17.9 °F 19.4 °F 80% 30.34 in 10.0 mi West 5.8 mph - N/A   Clear
7:35 AM 26.6 °F 20.0 °F 19.4 °F 74% 30.35 in 10.0 mi West 5.8 mph - N/A   Clear
7:55 AM 26.6 °F 20.0 °F 19.4 °F 74% 30.35 in 10.0 mi WSW 5.8 mph - N/A   Clear
8:15 AM 26.6 °F 21.2 °F 21.2 °F 80% 30.35 in 10.0 mi WSW 4.6 mph - N/A   Clear
8:55 AM 32.0 °F - 23.0 °F 69% 30.35 in 10.0 mi Calm Calm - N/A   Clear
9:15 AM 33.8 °F - 21.2 °F 60% 30.35 in 10.0 mi Calm Calm - N/A   Clear
9:35 AM 33.8 °F - 23.0 °F 65% 30.35 in 10.0 mi Calm Calm - N/A   Clear
9:55 AM 37.4 °F - 23.0 °F 56% 30.35 in 10.0 mi Calm Calm - N/A   Clear
10:15 AM 37.4 °F - 23.0 °F 56% 30.34 in 10.0 mi Calm Calm - N/A   Clear
10:35 AM 41.0 °F - 24.8 °F 53% 30.34 in 10.0 mi Calm Calm - N/A   Clear
10:55 AM 42.8 °F - 23.0 °F 46% 30.33 in 10.0 mi Calm Calm - N/A   Clear
11:15 AM 44.6 °F - 23.0 °F 43% 30.33 in 10.0 mi Calm Calm - N/A   Clear
11:35 AM 48.2 °F - 21.2 °F 34% 30.32 in 10.0 mi ESE 4.6 mph - N/A   Clear
12:55 PM 53.6 °F - 17.6 °F 24% 30.27 in 10.0 mi South 6.9 mph 17.3 mph N/A   Clear
1:15 PM 57.2 °F - 17.6 °F 21% 30.25 in 10.0 mi South 12.7 mph 17.3 mph N/A   Clear
1:35 PM 57.2 °F - 15.8 °F 20% 30.23 in 10.0 mi SSE 13.8 mph 20.7 mph N/A   Clear
1:55 PM 59.0 °F - 17.6 °F 20% 30.22 in 10.0 mi South 11.5 mph 20.7 mph N/A   Clear
2:15 PM 59.0 °F - 14.0 °F 17% 30.19 in 10.0 mi SSW 11.5 mph 21.9 mph N/A   Clear
2:35 PM 60.8 °F - 15.8 °F 17% 30.17 in 10.0 mi SW 15.0 mph 23.0 mph N/A   Clear
2:55 PM 60.8 °F - 15.8 °F 17% 30.15 in 10.0 mi South 13.8 mph 27.6 mph N/A   Clear
3:15 PM 60.8 °F - 17.6 °F 19% 30.13 in 10.0 mi SSW 17.3 mph 24.2 mph N/A   Clear
3:35 PM 62.6 °F - 17.6 °F 18% 30.11 in 10.0 mi SSW 19.6 mph 31.1 mph N/A   Clear
3:55 PM 60.8 °F - 17.6 °F 19% 30.10 in 10.0 mi SSW 13.8 mph 28.8 mph N/A   Clear
4:15 PM 60.8 °F - 19.4 °F 20% 30.08 in 10.0 mi SSW 16.1 mph 23.0 mph N/A   Clear
4:35 PM 60.8 °F - 19.4 °F 20% 30.06 in 10.0 mi South 17.3 mph 24.2 mph N/A   Clear
4:55 PM 60.8 °F - 19.4 °F 20% 30.04 in 10.0 mi South 18.4 mph 25.3 mph N/A   Clear
5:15 PM 60.8 °F - 21.2 °F 22% 30.03 in 10.0 mi SSW 16.1 mph 25.3 mph N/A   Clear
5:35 PM 60.8 °F - 23.0 °F 23% 30.01 in 10.0 mi South 15.0 mph 23.0 mph N/A   Clear
5:55 PM 62.6 °F - 23.0 °F 22% 30.00 in 10.0 mi South 18.4 mph 21.9 mph N/A   Clear
6:15 PM 62.6 °F - 23.0 °F 22% 29.99 in 10.0 mi SSW 19.6 mph 28.8 mph N/A   Clear
6:35 PM 62.6 °F - 23.0 °F 22% 29.98 in 10.0 mi SSW 20.7 mph 26.5 mph N/A   Clear
6:55 PM 62.6 °F - 23.0 °F 22% 29.97 in 10.0 mi SSW 20.7 mph 25.3 mph N/A   Clear
7:15 PM 60.8 °F - 23.0 °F 23% 29.96 in 10.0 mi South 15.0 mph 26.5 mph N/A   Clear
8:15 PM 55.4 °F - 26.6 °F 33% 29.94 in 10.0 mi South 16.1 mph - N/A   Clear
8:35 PM 53.6 °F - 26.6 °F 35% 29.94 in 10.0 mi SSE 13.8 mph - N/A   Clear
9:15 PM 53.6 °F - 26.6 °F 35% 29.91 in 10.0 mi SSE 16.1 mph 19.6 mph N/A   Clear
9:35 PM 51.8 °F - 26.6 °F 38% 29.91 in 10.0 mi South 17.3 mph - N/A   Clear
9:55 PM 51.8 °F - 24.8 °F 35% 29.89 in 10.0 mi South 20.7 mph 26.5 mph N/A   Clear
10:15 PM 51.8 °F - 24.8 °F 35% 29.89 in 10.0 mi South 18.4 mph 27.6 mph N/A   Clear
10:35 PM 51.8 °F - 24.8 °F 35% 29.89 in 10.0 mi South 17.3 mph 24.2 mph N/A   Clear
10:55 PM 51.8 °F - 24.8 °F 35% 29.88 in 10.0 mi South 17.3 mph 25.3 mph N/A   Clear
11:15 PM 51.8 °F - 24.8 °F 35% 29.87 in 10.0 mi South 21.9 mph 25.3 mph N/A   Clear
11:35 PM 51.8 °F - 23.0 °F 33% 29.86 in 10.0 mi South 19.6 mph 28.8 mph N/A   Clear
11:55 PM 51.8 °F - 23.0 °F 33% 29.85 in 10.0 mi South 19.6 mph 26.5 mph N/A   Clear